Regional Weather Roundup
Issued by NWS

Home | Current Version | Previous Version | Graphics & Text | Print | Product List | Glossary On
Versions: 1 2 3 4 5 6 7 8 9 10 11 12 13 14 15 16 17 18 19 20 21 22 23 24 25 26 27 28 29 30 31 32 33 34 35 36 37 38 39 40 41 42 43 44 45 46 47 48 49 50
085
ASUS43 KMKX 301600
RWRWI

WISCONSIN REGIONAL WEATHER ROUNDUP
NATIONAL WEATHER SERVICE MILWAUKEE/SULLIVAN WI
1100 AM CDT SUN APR 30 2017

NOTE: "FAIR" INDICATES FEW OR NO CLOUDS BELOW 12,000 FEET WITH NO
SIGNIFICANT WEATHER AND/OR OBSTRUCTIONS TO VISIBILITY.

WIZ001-002-006>008-014>016-023>028-301700-
NORTHWEST WISCONSIN

CITY           SKY/WX    TMP DP  RH WIND       PRES   REMARKS
SUPERIOR ARPT  CLOUDY    40  32  73 NE13G22   30.14F WCI  32
ASHLAND        CLOUDY    42  32  67 NE14      30.12F
HAYWARD        CLOUDY    46  25  43 NE9       30.06F
SIREN          CLOUDY    42  25  50 NE7       30.06F
CUMBERLAND     LGT RAIN  43  28  56 NE10      30.03S
RICE LAKE      DRIZZLE   44  29  55 NE8       30.05S
CHETEK         NOT AVBL
LADYSMITH      CLOUDY    45  28  51 E10G20    30.05S
EAU CLAIRE     NOT AVBL
MENOMONIE      DRIZZLE   44  30  59 N12       30.00F
NEW RICHMOND   LGT RAIN  41  32  68 NE9G16    30.02F
OSCEOLA        LGT RAIN  44  31  59 NE9       30.06S
$$

WIZ003>005-009-010-017-018-301700-
NORTH CENTRAL WISCONSIN

CITY           SKY/WX    TMP DP  RH WIND       PRES   REMARKS
MANITOWISH WTR NOT AVBL
ARBOR VITAE    CLOUDY    44  26  49 E7G17     30.06S
WOODRUFF       CLOUDY    44  26  49 E7G17     30.06S
RHINELANDER    CLOUDY    46  29  51 E16       30.07R
EAGLE RIVER    CLOUDY    44  25  48 E13       30.06S
LAND O LAKES   PTSUNNY   45  23  42 E13G22    30.08R
PHILLIPS       CLOUDY    45  28  51 E12G23    30.04S
TOMAHAWK       CLOUDY    43  30  59 E7        30.06R
MEDFORD        CLOUDY    43  33  68 E15       30.01R
MERRILL        CLOUDY    42  32  68 E10G18    30.05R
$$

WIZ029-030-035-036-043>047-301700-
CENTRAL WISCONSIN

CITY           SKY/WX    TMP DP  RH WIND       PRES   REMARKS
WAUSAU         CLOUDY    44  32  62 E16       30.01R
MOSINEE        CLOUDY    43  36  75 E14       30.03R
MARSHFIELD     CLOUDY    43  34  70 E18G25    29.98S
STEVENS POINT  CLOUDY    38  36  92 NE12      30.01R WCI  31
WAUPACA        CLOUDY    43  40  88 NE17G26   29.99F
WAUTOMA        CLOUDY    41  38  89 NE9G24    30.00
WISC RAPIDS    CLOUDY    42  37  82 E12G23    30.00S
CAMP DOUGLAS   DRIZZLE   41  37  87 NE7       29.97F
$$

WIZ011>013-019>022-031-037>040-048>050-301700-
NORTHEAST WISCONSIN

CITY           SKY/WX    TMP DP  RH WIND       PRES   REMARKS
ANTIGO         CLOUDY    42  32  67 E16       30.02F
SHAWANO        CLOUDY    42  39  89 NE18      30.04S FOG
OCONTO         CLOUDY    38  36  95 NE10G21   30.06  WCI  30
STURGEON BAY   MIX PCPN  37  36  96 NE16G23   30.05S FOG     WCI  28
GREEN BAY      CLOUDY    41  41 100 NE20      30.01S FOG
MANITOWOC      NOT AVBL
APPLETON       CLOUDY    39  37  93 NE18G25   29.97S WCI  30
CLINTONVILLE   CLOUDY    41  37  87 E17       30.02S
OSHKOSH        CLOUDY    41  37  86 NE15G28   29.95F
$$

WIZ032>034-041-042-053>061-301700-
SOUTHWEST WISCONSIN

CITY           SKY/WX    TMP DP  RH WIND       PRES   REMARKS
LA CROSSE      CLOUDY    45  36  70 E9        29.97R
SPARTA         CLOUDY    42  37  82 E10G22    29.97F
VIROQUA        CLOUDY    40  37  87 E17G24    29.93F WCI  32
BOSCOBEL       CLOUDY    44  38  79 NE8       29.94R
PRAIRIE DU CHI CLOUDY    42  37  80 NE6       29.92S
PLATTEVILLE    CLOUDY    42  41  96 NE16      29.90R
$$

WIZ056-057-062-063-064-067-068-301700-
SOUTH CENTRAL WISCONSIN

CITY           SKY/WX    TMP DP  RH WIND       PRES   REMARKS
REEDSBURG      NOT AVBL
BARABOO/DELLS  CLOUDY    40  38  94 NE15G21   29.94S WCI  32
LONE ROCK      NOT AVBL
MINERAL POINT  CLOUDY    41  41 100 NE12      29.90R
MADISON        DRIZZLE   41  40  96 NE12      29.92R FOG
MIDDLETON      CLOUDY    42  42  99 E9        29.92R
WATERTOWN      CLOUDY    41  41 100 NE10G16   29.90R FOG
MONROE         CLOUDY    41  39  93 NE15      29.89R
JANESVILLE     LGT RAIN  45  43  93 E16       29.89R FOG
$$

WIZ051-052-058>065-066-070>072-301700-
SOUTHEAST WISCONSIN

CITY           SKY/WX    TMP DP  RH WIND       PRES   REMARKS
MILWAUKEE      LGT RAIN  43  42  97 NE12      29.91R VSB 1
WAUKESHA       FOG       39  39 100 NE14      29.92R VSB 1   WCI  31
MILWAUKEE/TIMM DRIZZLE   39  37  93 NE13      29.92R WCI  32
RACINE         LGT RAIN  42  40  92 NE10      29.91R VSB 1
KENOSHA        FOG       43  41  93 NE13      29.88R VSB 3/4
FOND DU LAC    CLOUDY    41  37  86 NE16G28   29.94S
SHEBOYGAN      LGT RAIN  40  38  93 NE21G31   29.94F FOG     WCI  30
WEST BEND      RAIN      39  39 100 NE14G24   29.91F WCI  31
JUNEAU         CLOUDY    40  38  95 NE9G18    29.92S FOG     WCI  34
$$

LSZ147-162-301700-
LAKE SUPERIOR

STATION/POSITION TIME  TEMP    WIND        PRES    WAVE
                       AIR SEA DIR/SP/G            HT/PER
                 (UTC) (F)     (DEG/KT/KT) (MB)    (FT/S)
DEVILS ISLAND    1500   37      60/ 20/ 22 1021.5F
PORT WING        1530   39      40/ 16/ 19 1020.3S
SAXON HARBOR     1530   38      40/ 10/ 12 1019.6R
$$

LMZ867-665-643>646-301700-
LAKE MICHIGAN

STATION/POSITION TIME  TEMP    WIND        PRES    WAVE
                       AIR SEA DIR/SP/G            HT/PER
                 (UTC) (F)     (DEG/KT/KT) (MB)    (FT/S)
CHAMBERS ISLAND  1540   37      40/ 14/ 21 1018.3F
N MID LAKE BUOY  1450   37 37   80/ 21/ 25 1019.9F   5/ 5
NORTHPORT PIER   1546   37      60/ 20/ 25 1018.6F
KEWAUNEE LAKESHO 1530   38      30/ 19/ 25 1016.0F
SHEBOYGAN LAKESH 1500   39      30/ 20/ 22 1014.4F
PORT WASHINGTON  1540   41      30/ 12/ 17 1014.9R
MILWAUKEE LAKESH 1530   40      10/ 12/ 15   N/A
S MID LAKE BUOY  1450   42 40   60/ 19/ 23 1010.0F   4/ 5
KENOSHA   LAKESH 1500   41      50/ 16/ 22 1010.8
$$

TC  - TEMPERATURE IN CELSIUS
VSB - VISIBILITY IN STATUTE MILES
WCI - WIND CHILL INDEX
HX  - HEAT INDEX





USA.gov is the U.S. government's official web portal to all federal, state and local government web resources and services.